CZ-4B DEB, 39052

Orbit data source: Space-Track

CZ-4B DEB, 39052 is space debris in SSO originally from a launch on Thu, 14 Oct 1999 UTC launched from the Taiyaun Space Center, China (TSC). Debris objects in space refer to the collection of defunct objects orbiting the Earth. Examples of debris include non-operational satellites, rocket bodies, and fragments generated from explosions, collisions, or faulty payload assembly.

Loading next visibility...
Identifier
39052, 1999-057SZ
Orbit
SSO
Country
Flag of CNCN / PRC
Related business
Manufacturer
Unknown
Mission
Spacecraft
Bus & Motor
Unknown
Mass
Unknown
Launch date (UTC)
1999-10-14 (26 years ago)
Launch vehicle
Unknown
Launch site
Taiyaun Space Center, China (TSC)
Object type
Payload
Rocket body
Debris
Shape & HBR
Unknown shape, 0.1 m
Radar Cross Section
Small (<0.1 m²)

Expand to show TLE details & history
Last TLE update: 16 hours ago

TLE from 16 hours ago
0 CZ-4B DEB
1 39052U 99057SZ  26037.00146097  .00002363  00000-0  21316-3 0  9994
2 39052  98.7533  58.0005 0058539  99.2891 261.4953 14.95425438719194
Epoch: 2026-02-06T00:02Z
TLE epoch observation values (Epoch: 2026-02-06T00:02:06.227Z)
Latitude
-0.00005°
Longitude
-78.67104°
Altitude
590.327 km
Speed
7.562 km/s
True Right ascension
03h 52m 00s
True Declination
0° 00' 00"
Sunlit
Object was in daylight at epoch
Visualization orbit readout
Latitude
Unknown
Longitude
Unknown
Altitude
Unknown
Speed
Unknown
Apparent Right ascension
Unknown
Apparent Declination
Unknown
Sunlit
N/A
Visualization observer readout
Local Sidereal Time
17:41:58
Azimuth
Unknown
Elevation
Unknown
Doppler factor
Unknown
Orbital elements
Apogee altitude
618.834 km
Perigee altitude
537.392 km
Semi-major axis
6,956.25 km
Eccentricity
0.00585
Inclination
98.7533°
RAAN
58.0005°
Arg. of periapsis
99.2891°
True anomaly
260.8326°
Mean anomaly
261.4953°
Eccentric anomaly
261.16388°
Mean motion
3.74094 °/min
Orbital period
96.23 mins
BSTAR
0.00021316
Loading maneuver chart data...
Computing Atmospheric mass density...
Loading historical data...
Loading historical data...
Loading historical data...
Loading historical data...
Loading historical data...
Loading historical data...
Loading historical data...

Documentation

Showing up to 5 results
|